EW6887 Weather Reports


time (UTC)temp
C
wind
direction
speed
KPH
gust
KPH
rain 1hr
cm
rain 24hr
cm
rain mn
cm
humidity
%
barometer
mb
20260507231520 11 346 0.0 0.0 0.00 0.00 0.00 84 1014.1
20260507230015 11 345 0.0 0.0 0.00 0.00 0.00 84 1014.1
20260507224505 11 5 0.0 0.0 0.00 0.00 0.00 83 1014.0
20260507223058 11 348 0.0 0.0 0.00 0.00 0.00 81 1014.0
20260507221550 12 324 0.0 0.0 0.00 0.00 0.00 82 1013.9
20260507220043 12 343 0.0 0.0 0.00 0.00 0.00 80 1013.9
20260507214505 12 322 0.0 0.0 0.00 0.00 0.00 79 1013.9
20260507213058 12 355 0.0 0.0 0.00 0.00 0.00 77 1013.8
20260507211604 12 355 0.0 0.0 0.00 0.00 0.00 77 1013.6
20260507210042 12 57 0.0 0.0 0.00 0.00 0.00 77 1013.4
20260507204534 12 57 0.0 0.0 0.00 0.00 0.00 77 1013.2
20260507203025 12 130 0.0 0.0 0.00 0.00 0.00 77 1013.0
20260507201614 12 136 0.0 0.0 0.00 0.00 0.00 75 1012.8
20260507200005 13 173 0.0 0.0 0.00 0.00 0.00 74 1012.7
20260507194601 13 173 0.0 0.0 0.00 0.00 0.00 73 1012.6
20260507193049 13 174 0.0 0.0 0.00 0.00 0.00 72 1012.6
20260507191613 13 192 0.0 0.0 0.00 0.00 0.00 70 1012.4
20260507190004 14 180 0.0 0.0 0.00 0.00 0.00 67 1012.1
20260507184551 15 180 0.0 0.0 0.00 0.00 0.00 65 1011.9
20260507183145 15 176 0.0 0.0 0.00 0.00 0.00 62 1011.8
20260507181537 15 196 0.0 0.0 0.00 0.00 0.00 61 1011.5
20260507180028 16 183 0.0 0.0 0.00 0.00 0.00 59 1011.3
20260507174519 16 178 0.0 0.0 0.00 0.00 0.00 57 1011.2
20260507173007 17 169 0.0 0.0 0.00 0.00 0.00 56 1011.1
20260507171602 17 166 0.0 0.0 0.00 0.00 0.00 56 1010.9
20260507170052 17 191 0.0 0.0 0.00 0.00 0.00 55 1010.8
20260507164547 18 123 0.0 0.0 0.00 0.00 0.00 53 1010.7
20260507163036 18 167 0.0 0.0 0.00 0.00 0.00 54 1010.5
20260507161530 17 175 0.0 0.0 0.00 0.00 0.00 55 1010.5
20260507160021 18 188 0.0 0.0 0.00 0.00 0.00 55 1010.5
20260507154511 18 190 0.0 0.0 0.00 0.00 0.00 53 1010.3
20260507153102 18 186 0.0 0.0 0.00 0.00 0.00 54 1010.4
20260507151552 19 86 0.0 0.0 0.00 0.00 0.00 50 1010.2
20260507150049 20 135 0.0 0.0 0.00 0.00 0.00 48 1010.0
20260507144545 20 154 0.0 0.0 0.00 0.00 0.00 47 1010.0
20260507143006 19 82 0.0 0.0 0.00 0.00 0.00 49 1010.1
20260507141559 20 113 0.0 0.0 0.00 0.00 0.00 49 1010.0
20260507140101 19 360 0.0 0.0 0.00 0.00 0.00 47 1010.1
20260507134543 20 85 0.0 0.0 0.00 0.00 0.00 46 1010.1
20260507133038 20 81 0.0 0.0 0.00 0.00 0.00 47 1010.2
20260507131631 19 58 0.0 0.0 0.00 0.00 0.00 47 1010.2
20260507130019 19 145 0.0 0.0 0.00 0.00 0.00 47 1010.3
20260507124515 19 102 0.0 0.0 0.00 0.00 0.00 48 1010.2
20260507123004 18 175 0.0 0.0 0.00 0.00 0.00 49 1010.1
20260507121557 18 92 0.0 0.0 0.00 0.00 0.00 51 1010.1
20260507120050 17 126 0.0 0.0 0.00 0.00 0.00 56 1010.2
20260507114646 18 360 0.0 0.0 0.00 0.00 0.00 55 1010.2
20260507113139 18 360 0.0 0.0 0.00 0.00 0.00 57 1010.1
20260507111530 18 360 0.0 0.0 0.00 0.00 0.00 55 1010.0
20260507110020 18 349 0.0 0.0 0.00 0.00 0.00 59 1009.9
20260507104520 18 294 0.0 0.0 0.00 0.00 0.00 60 1009.9
20260507103008 18 82 0.0 0.0 0.00 0.00 0.00 60 1009.9
20260507101608 18 83 0.0 0.0 0.00 0.00 0.00 62 1009.9
20260507100050 17 46 0.0 0.0 0.00 0.00 0.00 63 1009.9
20260507094558 16 105 0.0 0.0 0.00 0.00 0.00 66 1009.7
20260507093049 16 78 0.0 0.0 0.00 0.00 0.00 68 1009.8
20260507091558 15 62 0.0 0.0 0.00 0.00 0.00 71 1009.8
20260507090032 15 71 0.0 0.0 0.00 0.00 0.00 72 1009.6
20260507084527 15 57 0.0 0.0 0.00 0.00 0.00 76 1009.6
20260507083021 14 65 0.0 0.0 0.00 0.00 0.00 78 1009.5
20260507081511 14 95 0.0 0.0 0.00 0.00 0.00 78 1009.5
20260507080104 14 98 0.0 0.0 0.00 0.00 0.00 77 1009.4
20260507074555 14 80 0.0 0.0 0.00 0.00 0.00 77 1009.3
20260507073100 15 57 0.0 0.0 0.00 0.00 0.00 77 1009.1
20260507071546 14 94 0.0 0.0 0.00 0.00 0.00 80 1009.1
20260507070100 13 101 0.0 0.0 0.00 0.00 0.00 81 1009.0
20260507064631 13 66 0.0 0.0 0.00 0.00 0.00 83 1008.8
20260507063024 13 92 0.0 0.0 0.00 0.00 0.00 85 1008.7
20260507061527 13 88 0.0 0.0 0.00 0.00 0.00 87 1008.6
20260507060006 13 51 0.0 0.0 0.00 0.00 0.00 87 1008.4
20260507054608 12 88 0.0 0.0 0.00 0.00 0.00 88 1008.2
20260507053053 12 103 0.0 0.0 0.00 0.00 0.00 88 1008.1
20260507051545 12 65 0.0 0.0 0.00 0.00 0.00 88 1007.9
20260507050037 12 39 0.0 0.0 0.00 0.00 0.00 89 1007.7
20260507044540 12 11 0.0 0.0 0.00 0.00 0.00 90 1007.5
20260507043019 12 236 0.0 0.0 0.00 0.00 0.00 90 1007.3
20260507041513 12 222 0.0 0.0 0.00 0.00 0.00 90 1007.0
20260507040004 12 222 0.0 0.0 0.00 0.00 0.00 89 1006.9
20260507034553 12 222 0.0 0.0 0.00 0.00 0.00 89 1007.0
20260507033149 12 222 0.0 0.0 0.00 0.00 0.00 87 1006.8
20260507031542 12 198 0.0 0.0 0.00 0.00 0.00 86 1006.8
20260507030033 12 187 0.0 0.0 0.00 0.00 0.00 84 1006.6
20260507024519 13 82 0.0 0.0 0.00 0.00 0.00 82 1006.4
20260507023110 13 11 0.0 0.0 0.00 0.00 0.00 80 1006.2
20260507021502 13 10 0.0 0.0 0.00 0.00 0.00 80 1005.9
20260507020105 13 269 0.0 0.0 0.00 0.00 0.00 78 1005.8
20260507014609 13 269 0.0 0.0 0.00 0.00 0.00 78 1005.6
20260507013052 13 246 0.0 0.0 0.00 0.00 0.00 78 1005.7
20260507011538 13 246 0.0 0.0 0.00 0.00 0.00 77 1005.6
20260507010028 13 287 0.0 0.0 0.00 0.00 0.00 77 1005.2
20260507004519 14 234 0.0 0.0 0.00 0.00 0.00 77 1005.1
20260507003013 14 244 0.0 0.0 0.00 0.00 0.00 76 1005.1
20260507001510 14 246 0.0 0.0 0.00 0.00 0.00 78 1004.7
20260507000059 14 244 0.0 0.0 0.00 0.00 0.00 82 1004.6
20260506234550 13 222 0.0 0.0 0.00 0.00 0.00 83 1004.8
20260506233054 13 209 0.0 0.0 0.00 0.00 0.00 84 1004.8